Home   Weather   Gröbming   Past weeks

Flag for Austria Past Weather in Gröbming, Styria, Austria — Yesterday and Last 2 Weeks

Now
57 °F

Fog.


Feels Like: 57 °F
Forecast: 48 / 61 °F
Wind: 1 mph from Northeast

Location: Aigen Im Ennstal

Current Time: Aug 19, 2017 at 6:58:18 pm

Latest Report: Aug 19, 2017 at 6:00 pm


Visibility: N/A

Pressure: 30.16 "Hg (27.52 "Hg at 769m altitude)

Humidity: 91%

Dew Point: 55 °F

Location of GröbmingLocation

Past Weather in Gröbming — Graph

°F

Gröbming Temperature Yesterday

Maximum temperature yesterday: 86 °F (at 4:00 pm)
Minimum temperature yesterday: 56 °F (at 7:00 am)
Average temperature yesterday: 70 °F

High & Low Weather Summary for the Past Weeks

 TemperatureHumidityPressure
High86 °F (Aug 4, 5:00 pm)97% (Aug 14, 6:00 am)30.28 "Hg (Aug 14, 6:00 am)
Low48 °F (Aug 14, 5:00 am)36% (Aug 17, 4:00 pm)29.77 "Hg (Aug 8, 5:00 pm)
Average65 °F76%30.06 "Hg
* Reported Aug 4 5:00 pm — Aug 19 5:00 pm, Gröbming. Weather by CustomWeather, © 2017

Note: Actual official high and low records may vary slightly from our data, if they occured in-between our weather recording intervals... More about our weather records

Advertising

Gröbming Weather History for the Previous 24 Hours

Scroll right to see more
 ConditionsComfort  
Time TempWeatherWind HumidityBarometerVisibility
5:00 pm
Sat, Aug 19
59 °FRain showers. Low clouds.N/A85%30.11 "Hg4 mi
4:00 pm60 °FFog.1 mph89%30.11 "HgN/A
3:00 pm61 °FFog.1 mph92%30.10 "HgN/A
2:00 pm61 °FSprinkles. Low clouds.N/A88%30.10 "Hg6 mi
1:00 pm62 °FCool.1 mph89%30.09 "HgN/A
12:00 pm62 °FSprinkles. Cloudy.2 mph86%30.08 "HgN/A
11:00 am61 °FSprinkles. Low clouds.N/A92%30.09 "Hg9 mi
10:00 am61 °FFog.2 mph92%30.12 "HgN/A
9:00 am60 °FFog.No wind94%30.09 "HgN/A
8:00 am61 °FRain showers. Low clouds.N/A93%30.08 "Hg4 mi
7:00 am61 °FSprinkles. Low clouds.N/A92%30.06 "Hg9 mi
6:00 am62 °FSprinkles. Overcast.3 mph85%30.04 "Hg7 mi
5:00 am62 °FSprinkles. Overcast.3 mph85%30.04 "Hg7 mi
4:00 am68 °FMild.1 mph63%30.01 "HgN/A
3:00 am71 °FMild.3 mph54%29.99 "HgN/A
2:00 am72 °FOvercast.3 mph51%30.00 "Hg12 mi
1:00 am72 °FMild.2 mph52%30.01 "HgN/A
12:00 am73 °FMild.2 mph54%29.93 "HgN/A
11:00 pm
Fri, Aug 18
67 °FPassing clouds.N/A73%29.91 "Hg16 mi
10:00 pm69 °FMild.1 mph72%29.90 "HgN/A
9:00 pm72 °FMild.1 mph66%29.87 "HgN/A
8:00 pm76 °FPassing clouds.N/A60%29.84 "Hg25 mi
7:00 pm80 °FWarm.2 mph57%29.83 "HgN/A
6:00 pm82 °FWarm.1 mph50%29.84 "HgN/A
Weather by CustomWeather, © 2017

See weather overviewHow to use our weather pages